DEORBITSAIL
1 40719U 15032E 19058.93627465 .00000311 00000-0 51726-4 0 9997
2 40719 097.9214 312.9338 0015419 307.0765 052.9034 14.76646998195910
NUDT-PHONESAT
1 40900U 15049B 19059.50050773 .00001340 00000-0 61161-4 0 9990
2 40900 97.4403 69.9400 0012156 204.2510 281.5447 15.22309192190891
XW-2A
1 40903U 15049E 19059.43781828 .00001228 00000-0 31378-4 0 9999
2 40903 97.3534 101.5107 0013795 176.3661 297.8714 15.41402091193265
XW-2C
1 40906U 15049H 19059.54698946 .00000633 00000-0 36831-4 0 9990
2 40906 97.4662 63.4714 0013566 216.3275 259.8568 15.15522047190316
XW-2D
1 40907U 15049J 19059.40462767 .00000710 00000-0 40693-4 0 9993
2 40907 97.4643 63.0103 0012931 213.2893 256.6742 15.15698190190302
LILACSAT-2
1 40908U 15049K 19059.40382409 .00000525 00000-0 32735-4 0 9990
2 40908 97.4765 62.0221 0014602 219.8004 250.1756 15.13711787190121
XW-2E
1 40909U 15049L 19059.40601517 .00000888 00000-0 47559-4 0 9997
2 40909 97.4592 65.5622 0012884 208.6981 261.8450 15.17536378190465
XW-2F
1 40910U 15049M 19059.40155527 .00000906 00000-0 49091-4 0 9998
2 40910 97.4623 64.7868 0013913 206.5897 262.0338 15.17052080190294
XW-2B
1 40911U 15049N 19059.36586664 .00000302 00000-0 19337-4 0 9994
2 40911 97.4666 63.5921 0012927 214.0979 253.2388 15.15629545190198
DCBB
1 40912U 15049P 19059.40096365 .00000872 00000-0 44432-4 0 9990
2 40912 97.4514 68.1978 0014610 190.4124 275.5145 15.19331324190562
TW-1C
1 40926U 15051B 19059.38888762 .00007317 00000-0 11746-3 0 9997
2 40926 97.1527 105.7971 0010416 69.0491 54.3309 15.53281384193024
TW-1A
1 40928U 15051D 19059.45502797 .00002149 00000-0 55645-4 0 9993
2 40928 97.1593 93.1695 0013282 110.2773 357.7793 15.40055213192200
IO-86
1 40931U 15052B 19056.68665056 .00000721 00000-0 11499-4 0 9991
2 40931 5.9965 142.6125 0012437 354.2232 5.7770 14.76598093184531
LQSat
1 40958U 15057A 19059.38730485 -.00000010 00000-0 61734-5 0 9994
2 40958 97.9105 131.4984 0016834 233.1578 126.8087 14.73067818182569
AO-85
1 40967U 15058D 19058.46690822 .00000161 00000-0 34677-4 0 06137
2 40967 064.7763 136.1373 0210390 237.0416 121.0284 14.75884105091329
ATHENOXAT-1
1 41168U 15077C 19058.94104096 .00001696 00000-0 54944-4 0 9998
2 41168 14.9902 307.6278 0011495 356.5968 105.4369 15.13357456177173
ChubuSat-2
1 41338U 16012B 19058.57164318 .00000299 00000-0 16605-4 0 9999
2 41338 31.0030 130.9239 0013772 82.1360 278.0838 15.00099193166214
ChubuSat-3
1 41339U 16012C 19059.55223493 .00000271 00000-0 14368-4 0 9993
2 41339 31.0100 122.9326 0013584 99.7526 260.4635 15.00278689166354
Horyu-4
1 41340U 16012D 19059.53047200 .00000492 00000-0 30731-4 0 9990
2 41340 31.0049 115.5177 0013994 115.8093 244.3988 15.01179060166440
OUFTI-1
1 41458U 16025C 19059.46627450 .00000955 00000-0 53008-4 0 9993
2 41458 98.1070 140.7240 0167735 8.2814 352.1114 15.05446499155992
e-st@r-II
1 41459U 16025D 19059.45757669 .00000359 00000-0 22988-4 0 9990
2 41459 98.1065 140.4386 0168804 9.3825 351.0477 15.05113608155967
AAUSAT4
1 41460U 16025E 19059.16676685 .00001335 00000-0 71503-4 0 9990
2 41460 98.1015 141.1138 0159251 3.8253 356.4193 15.06844113156022
LO-87
1 41557U 16033B 19059.49945127 .00001359 00000-0 54131-4 0 9996
2 41557 97.4215 147.6571 0013082 333.2886 26.7677 15.26904645153275
NuSat2
1 41558U 16033C 19059.47452205 .00001385 00000-0 52111-4 0 9990
2 41558 97.4236 148.3253 0012184 336.1156 23.9517 15.28800928153293
Lapan A3
1 41603U 16040E 19059.47984008 .00000182 00000-0 11679-4 0 9998
2 41603 97.3762 120.8202 0015078 67.5799 343.1539 15.19671495149009
Swayam
1 41607U 16040J 19058.90112421 .00001365 00000-0 60949-4 0 9999
2 41607 097.3801 122.9542 0015041 064.6563 295.6229 15.22952106149017
Pratham
1 41783U 16059A 19058.73239997 .00000005 00000-0 10306-4 0 9995
2 41783 98.0830 120.6815 0033797 15.2515 344.9698 14.62974506129328
AlSat 1N
1 41789U 16059G 19059.43049023 .00000050 00000-0 18593-4 0 9994
2 41789 98.0846 123.1237 0028457 4.1183 356.0252 14.64218820129515
ScatSat
1 41790U 16059H 19058.68813150 -.00000012 00000-0 80583-5 0 9990
2 41790 098.2257 106.3519 0018917 030.9654 329.2652 14.50890808128232
TY-1
1 41844U 16066D 19059.40693954 .00001145 00000-0 50164-4 0 9995
2 41844 97.4073 68.0916 0014058 210.5634 257.4137 15.23987096127898
Pegasus-1
1 41846U 16066F 19058.65263644 .00000132 00000-0 30887-4 0 9997
2 41846 098.7271 097.0051 0367460 208.2430 149.8392 14.37497775120605
CAS-2T
1 41847U 16066G 19058.69494681 .00000010 00000-0 12366-4 0 9996
2 41847 098.7220 097.5672 0365688 204.9468 153.3653 14.37959524121042
EO-88
1 42017U 17008BX 19059.16033239 .00001379 00000-0 57857-4 0 9997
2 42017 97.4164 127.3453 0006069 183.9429 176.1762 15.25175858113078
SOMP2
1 42701U 98067LJ 19059.40956457 .00312890 53386-4 54104-3 0 9997
2 42701 51.6290 107.6402 0005516 40.7980 319.3443 16.01760417102513
PHOENIX
1 42706U 98067LP 19059.40926957 .00104717 00000-0 40903-3 0 9994
2 42706 51.6255 116.7635 0003425 34.7445 325.3782 15.86216874102310
ZA-AeroSat
1 42713U 98067LU 19059.43346029 .00082370 00000-0 35497-3 0 9993
2 42713 51.6325 122.2774 0003544 40.8641 319.2627 15.84266130101902
SpaceCube
1 42717U 98067LY 19059.48384722 .07084905 12372-4 63216-3 0 9996
2 42717 51.5996 100.9384 0001595 34.9449 325.1681 16.38295055101558
NJUST-1
1 42722U 98067MB 19059.48126163 .00034116 00000-0 17730-3 0 9998
2 42722 51.6377 126.9811 0003632 76.1200 23.7558 15.80631367100917
LO-90
1 42725U 98067ME 19059.53714525 .00161814 21754-4 35963-3 0 9999
2 42725 51.6292 112.0129 0005850 64.1604 77.4693 15.97537583101025
nSIGHT1
1 42726U 98067MF 19059.47166358 .00022105 00000-0 20850-3 0 9993
2 42726 51.6376 150.6740 0004758 105.9828 254.1693 15.66963872100511
SNUSAT 1B
1 42727U 98067MG 19059.00387568 .00188397 25168-4 45285-3 0 9992
2 42727 51.6250 115.4035 0006020 45.3712 314.7786 15.96058462100892
SUSat
1 42730U 98067MK 19059.40458410 .00303975 50198-4 56848-3 0 9994
2 42730 51.6267 109.8522 0005664 37.2916 322.8486 16.00416501100841
Aoxiang-1
1 42735U 98067MQ 19059.53605792 .00040722 00000-0 19750-3 0 9992
2 42735 51.6297 124.8936 0003425 97.5573 44.1156 15.82044303102077
BeEagleSat
1 42736U 98067MR 19059.41788139 .00131346 00000-0 44302-3 0 9991
2 42736 51.6286 117.5395 0003504 68.7446 291.3933 15.89096952100858
CAS-4B
1 42759U 17034B 19059.57637953 .00000056 00000-0 16968-4 0 9996
2 42759 43.0167 115.5219 0011947 278.7876 232.0564 15.09493423 94196
CAS-4A
1 42761U 17034D 19059.47546601 .00000110 00000-0 20301-4 0 9994
2 42761 43.0178 115.6841 0012444 278.7929 213.0510 15.09570165 94172
UCLSat
1 42765U 17036A 19058.86582678 .00001147 00000-0 52526-4 0 9991
2 42765 097.3667 119.1738 0009960 257.4134 102.5989 15.22453527094197
NIUSat
1 42766U 17036B 19058.78187582 .00000810 00000-0 39680-4 0 9990
2 42766 97.3667 117.7848 0014295 246.7316 113.2416 15.20874089 93375
LituanicaSAT 2
1 42768U 17036D 19058.90743581 .00001783 00000-0 80235-4 0 9995
2 42768 097.3696 118.7748 0013846 246.5827 113.3954 15.22324158093451
Aalto 1
1 42775U 17036L 19059.08971445 .00000730 00000-0 35811-4 0 9996
2 42775 97.3655 118.3874 0012587 245.3841 114.6084 15.21142080 93396
URSA MAIOR
1 42776U 17036M 19058.73067277 .00000737 00000-0 36008-4 0 9993
2 42776 097.3663 118.1498 0012375 246.6793 113.3141 15.21259854093344
